Overview Statistics Trail Chart Weather Telemetry Raw packets
 

This is the latest recevied weather packets stored in our database for station/object EA7OC-10. If no packets are shown the sender has not sent any weather packets the latest 10 day(s).

<< 23 24 25 26 27 28 29 >>
Time Temp. Humidity Pressure Rain* Wind** Luminosity Snow
1788046667 23.33° C 25% 1017.4 hPa - - - -
1788045766 23.33° C 24% 1017.4 hPa - - - -
1788044866 23.89° C 24% 1017.4 hPa - - - -
1788043966 25° C 24% 1017.4 hPa - - - -
1788043066 25.56° C 25% 1017.4 hPa - - - -
1788042166 25.56° C 25% 1017.4 hPa - - - -
1788041266 25.56° C 24% 1017.4 hPa - - - -
1788040366 26.11° C 24% 1017.3 hPa - - - -
1788039465 27.22° C 24% 1017.2 hPa - - - -
1788038565 27.22° C 24% 1017.2 hPa - - - -
1788037665 27.22° C 24% 1017.1 hPa - - - -
1788036765 27.78° C 25% 1017 hPa - - - -
1788035865 28.33° C 24% 1017 hPa - - - -
1788034965 28.33° C 24% 1016.8 hPa - - - -
1788034065 28.89° C 24% 1016.8 hPa - - - -
1788033172 29.44° C 24% 1016.6 hPa - - - -
1788032265 30° C 25% 1016.5 hPa - - - -
1788031365 31.11° C 24% 1016.3 hPa - - - -
1788030464 31.67° C 24% 1016.2 hPa - - - -
1788029564 33.33° C 24% 1016.1 hPa - - - -
1788028664 35.56° C 24% 1016.1 hPa - - - -
1788027764 38.33° C 24% 1016.2 hPa - - - -
1788026864 40° C 24% 1016.2 hPa - - - -
1788025964 41.11° C 25% 1016.2 hPa - - - -
1788025064 42.22° C 24% 1016.2 hPa - - - -

* Rain since midnight (hover to see other rain measurements)
** Current wind speed in m/s (hover to see current wind gust speed)